Location: Mount Cross
(36.6390°N, 79.4878°W)
Time: 12:13:20
(UTC+00:00)

Tiros 1 - Pass Details

Date: 02 April 2023
Orbit: 627 x 661 km, 48.4° (Epoch: 05 June)

Event Time Altitude Azimuth Distance (km) Brightness Sun altitude
Rises 10:03:32 0° 291° (WNW) 2,982 - -12.5°
Exits shadow 10:05:28 - 301° (WNW) 2,355 9.6 -12.1°
Reaches altitude 10° 10:06:27 10° 309° (NW) 2,074 9.4 -11.9°
Maximum altitude 10:09:58 20° 356° (N) 1,525 9.2 -11.2°
Drops below altitude 10° 10:13:29 10° 44° (NE) 2,077 10.7 -10.6°
Sets 10:16:25 0° 61° (ENE) 2,989 12.3 -10.0°
